Home > Weather > Ehingen (Donau) > Past weeks

Flag for Germany Weather for the Past 2 Weeks in Ehingen (Donau), Baden-Württemberg, Germany

Now
39 °F

Passing clouds.


Feels Like: 32 °F
Forecast: 37 / 47 °F
Wind: 12 mph from Southwest

Location: Laupheim Airport

Current Time: Feb 8, 2016 at 1:38:40 AM

Latest Report: Feb 8, 2016 at 12:20 AM


Visibility: N/A

Pressure: 29.89 "Hg (28.08 "Hg at 508m altitude)

Humidity: 81%

Dew point: 34 °F

Location of Ehingen (Donau)Location

Historic Weather in Ehingen (Donau) — Graph

°F

Ehingen (Donau) Temperature Yesterday

Maximum temperature yesterday: 46 °F (at 3:20 PM)
Minimum temperature yesterday: 30 °F (at 3:20 AM)
Average temperature yesterday: 36 °F

High & Low Weather Summary for the Past Weeks

 TemperatureHumidityPressure
High55 °F (Feb 1, 11:49 AM)100% (Jan 24, 12:20 AM)30.60 "Hg (Jan 24, 12:20 AM)
Low27 °F (Jan 24, 6:20 AM)47% (Jan 25, 2:20 PM)29.62 "Hg (Feb 7, 10:20 AM)
Average41 °F81%30.20 "Hg
* Reported Jan 23 11:20 PM — Feb 7 11:20 PM, Ehingen (Donau), Weather by CustomWeather, © 2016

Note: Actual official high and low records may vary slightly from our data, if they occured in-between our weather recording intervals... More about our weather records

Advertising

Ehingen (Donau) Weather History for the Previous 24 Hours

 ConditionsComfort  
Time TempWeatherWind HumidityBarometerVisibility
11:20 PM
Sun, Feb 7
39 °FPassing clouds.13 mph87%29.89 "HgN/A
10:20 PM39 °FPartly cloudy.10 mph87%29.89 "HgN/A
9:20 PM39 °FPassing clouds.14 mph87%29.89 "HgN/A
8:20 PM39 °FLight rain. Partly cloudy.12 mph87%29.86 "HgN/A
7:20 PM41 °FLight rain. Partly cloudy.13 mph87%29.83 "HgN/A
6:20 PM41 °FLight rain. Passing clouds.5 mph87%29.80 "HgN/A
5:20 PM41 °FLight rain. Broken clouds.8 mph81%29.80 "HgN/A
4:20 PM45 °FLight rain. Partly sunny.8 mph71%29.74 "HgN/A
3:20 PM46 °FBroken clouds.6 mph71%29.71 "HgN/A
2:20 PM37 °FPartly sunny.5 mph87%29.68 "HgN/A
1:20 PM37 °FFog.2 mph81%29.65 "HgN/A
12:20 PM34 °FFog.3 mph93%29.62 "HgN/A
11:20 AM34 °FFog.3 mph93%29.62 "HgN/A
10:20 AM32 °FFog.2 mph93%29.62 "HgN/A
9:20 AM30 °FFog.2 mph93%29.65 "HgN/A
8:20 AM30 °FFog.1 mph93%29.65 "Hg5 mi
7:20 AM30 °FFog.2 mph93%29.68 "HgN/A
6:20 AM30 °FPassing clouds.1 mph93%29.68 "HgN/A
5:20 AM30 °FPassing clouds.1 mph93%29.71 "HgN/A
4:20 AM30 °FPartly cloudy.1 mph93%29.71 "HgN/A
3:20 AM30 °FPassing clouds.1 mph93%29.74 "HgN/A
2:20 AM32 °FPassing clouds.1 mph87%29.74 "HgN/A
1:20 AM32 °FPassing clouds.No wind87%29.77 "HgN/A
Weather by CustomWeather, © 2016

See weather overviewHow to use our weather pages